Wind_Speed
10 12 16 19 11 4 7 13 3 12 13 10 9 7 5 9 13 6 7 8 10 13 12 10 9 11 11 11 11 11 11 11 12 15 18 20 21 20 20 19 19 19 19 19 19 18 19 21 23
15 13 19 19 9 6 15 7 22 7 17 16 7 3 5 6 7 6 7 8 9 10 11 10 9 9 9 10 10 11 11 12 11 13 16 18 20 22 21 20 20 20 20 20 19 19 20 22 22
19 16 18 17 9 5 7 16 5 3 18 20 12 4 4 5 7 5 6 7 8 8 9 11 10 9 8 8 9 10 9 11 12 12 13 15 17 19 21 21 21 21 20 19 19 18 20 21 21
25 19 18 16 10 4 5 9 15 6 18 21 4 3 3 6 9 6 7 7 8 8 7 9 11 10 9 8 8 9 10 10 12 12 12 13 15 16 18 19 19 20 20 19 18 17 17 17 17
28 25 22 17 14 10 3 9 5 21 22 20 5 3 1 5 8 8 9 9 10 11 8 7 9 12 10 9 9 9 9 9 10 11 11 12 13 14 15 16 17 17 17 18 18 19 18 17 15
28 29 25 19 18 15 10 4 19 29 35 32 17 5 3 2 3 5 7 7 9 10 11 8 7 9 11 9 9 9 8 9 9 10 10 12 13 14 14 14 15 15 15 15 14 15 16 16 16
32 32 29 25 20 17 3 8 24 27 34 37 28 8 7 3 1 3 4 5 6 7 9 10 8 6 8 9 7 7 7 6 8 9 9 10 11 13 14 14 14 13 13 13 13 13 13 12 13
36 37 32 27 22 16 5 6 18 21 24 35 36 18 5 7 4 2 4 5 5 6 8 9 10 7 4 7 7 6 5 4 5 6 7 9 10 10 12 13 13 13 12 13 12 12 12 12 12
42 42 35 31 27 20 21 17 16 23 24 25 32 23 7 7 6 6 3 6 4 4 7 8 9 9 6 3 5 6 5 4 4 4 5 6 8 8 10 10 10 10 9 9 9 9 9 9 9
46 46 39 36 34 30 30 20 16 19 26 32 33 25 10 15 11 8 8 6 7 4 5 6 8 9 10 6 2 2 5 6 4 3 4 5 5 5 5 6 7 7 6 6 6 6 7 7 7
47 49 41 39 39 39 44 27 22 26 29 33 36 32 22 20 19 12 10 9 9 7 4 4 6 7 9 10 6 2 1 2 5 6 6 5 5 5 5 3 3 2 2 2 2 3 3 4 5
48 50 48 41 44 46 47 46 40 40 39 29 35 35 30 25 23 15 13 12 11 11 9 6 4 5 7 8 9 6 1 0 1 2 3 4 4 4 4 5 3 2 2 1 1 2 2 3 4
51 46 50 46 45 48 53 49 52 51 47 34 38 37 32 23 22 19 16 13 14 13 13 11 8 6 3 6 7 8 6 2 1 1 1 1 1 1 0 0 1 1 1 1 2 3 5 5 6
52 53 50 50 49 48 57 53 54 53 52 47 43 41 35 31 25 25 20 16 15 16 15 12 11 10 7 5 4 6 6 5 2 2 1 1 0 1 1 1 1 1 1 2 2 3 3 4 5
59 61 57 54 52 51 55 60 58 55 57 52 45 51 44 41 38 30 28 22 19 21 17 13 11 10 9 9 6 4 6 6 4 3 3 3 2 2 2 3 3 2 4 3 5 5 5 7 8
62 63 58 61 53 50 56 63 55 55 57 55 53 51 50 48 45 39 35 32 23 25 22 16 16 15 11 9 9 8 6 6 7 5 5 4 3 2 2 2 2 3 2 3 4 5 7 6 6
64 64 62 55 58 59 59 64 53 53 55 58 57 56 54 51 52 49 40 38 31 27 28 26 24 22 18 14 12 10 10 9 7 8 7 4 4 3 3 3 1 0 1 2 2 3 4 4 5
71 69 66 63 59 66 68 64 56 46 53 57 57 60 57 54 54 53 49 43 40 35 32 32 31 28 25 20 17 16 14 13 14 12 11 10 7 5 5 4 3 3 3 3 5 4 5 7 5
73 76 74 68 65 68 72 71 67 61 58 57 59 57 58 59 54 55 52 54 48 45 38 36 34 32 31 26 24 22 20 18 17 17 16 16 14 13 11 11 9 9 8 7 8 9 11 11 12
75 78 80 76 70 69 74 78 72 69 68 62 56 57 56 57 58 57 56 57 57 53 47 39 39 37 36 32 29 29 26 22 20 19 20 21 20 21 21 18 17 15 14 15 14 14 15 16 18
76 78 78 81 74 70 72 76 75 69 73 68 66 59 56 57 55 56 56 56 60 61 55 49 42 43 39 37 36 34 32 26 22 23 24 25 24 25 27 27 25 23 22 20 21 20 20 20 21
75 72 74 78 75 78 67 76 69 71 71 67 67 68 58 52 54 55 48 51 53 62 64 55 50 44 45 42 41 39 35 32 26 27 27 26 26 27 29 30 31 30 29 26 26 27 26 26 25
64 67 65 71 67 76 72 70 74 65 72 69 69 68 66 50 52 55 39 45 50 56 62 61 60 53 48 46 44 43 39 35 31 30 30 30 30 29 31 33 34 34 32 31 31 31 32 31 29
53 53 57 56 51 65 77 72 76 63 68 67 68 68 60 55 53 58 58 55 56 59 60 62 63 64 56 45 44 46 42 38 37 35 34 34 34 34 34 34 36 38 36 34 34 35 35 35 34
36 40 48 44 38 52 66 62 78 68 66 67 66 63 53 57 57 60 65 61 60 62 62 64 65 68 66 55 49 47 46 44 42 42 41 41 39 37 36 38 38 38 40 39 39 38 37 35 35
34 33 37 42 41 49 58 52 67 69 63 70 68 71 50 54 63 67 62 64 59 61 64 63 68 71 69 68 55 53 49 48 48 48 47 45 43 41 40 40 42 41 42 42 43 43 41 38 36
23 39 33 41 41 44 35 45 56 56 57 62 59 57 58 49 52 65 71 51 59 70 67 64 72 73 73 67 61 58 55 55 54 51 50 48 48 47 44 43 43 45 46 46 46 46 45 44 41
14 11 32 44 42 46 45 36 36 30 32 40 45 56 52 54 54 53 56 62 60 66 75 77 77 77 71 70 64 65 61 59 59 58 56 52 51 51 50 47 45 46 48 47 48 48 48 47 44
25 25 20 24 27 40 47 48 34 25 32 35 28 35 47 65 62 61 61 56 62 66 69 71 79 79 77 75 74 71 64 61 63 63 59 56 54 55 56 52 48 48 50 49 50 50 51 49 46
21 27 26 24 28 31 29 52 37 42 39 39 34 39 38 59 62 68 70 67 64 67 71 71 74 74 68 71 68 66 66 63 60 63 63 58 58 59 58 58 54 52 52 53 53 53 53 52 49
Wind_Direction
222 179 173 163 165 207 120 83 130 237 290 283 333 352 343 7 5 22 9 28 43 48 44 53 56 63 60 57 53 77 65 71 84 92 96 97 100 102 103 107 113 117 116 115 113 109 109 110 108
228 194 174 165 184 253 40 176 150 260 291 312 337 8 24 20 19 26 17 20 33 48 49 54 57 61 58 60 63 78 74 72 79 88 94 99 103 104 102 101 102 105 108 111 112 107 108 110 108
234 233 193 190 155 75 332 297 348 205 278 297 298 355 44 37 41 32 43 28 28 40 47 55 61 61 66 63 73 90 80 73 83 81 86 92 95 100 102 101 102 100 99 101 104 103 103 107 108
237 232 227 192 147 147 358 327 0 319 286 294 235 270 46 46 50 29 33 50 40 40 45 51 63 56 66 66 62 89 92 79 78 85 91 89 95 97 96 97 99 102 103 102 99 95 93 95 99
238 239 236 195 141 151 233 320 317 304 302 298 339 283 41 69 57 44 39 48 55 46 45 45 59 66 52 63 65 65 93 94 82 87 93 97 100 99 98 95 94 94 96 99 101 99 98 97 93
236 240 236 211 175 157 187 236 258 287 300 293 299 298 273 62 55 30 31 39 52 50 47 42 47 65 65 52 66 61 77 103 104 94 95 97 98 99 102 101 100 98 99 100 102 105 105 105 102
235 238 236 233 184 152 162 231 257 270 287 292 286 287 277 287 317 9 352 10 25 38 46 49 47 52 73 69 64 70 63 92 107 104 104 105 100 100 100 105 103 99 95 95 95 96 95 94 100
235 238 235 234 228 171 197 254 264 264 285 283 282 275 296 257 258 269 334 331 12 17 35 44 50 55 63 85 79 88 88 83 95 102 106 113 112 105 103 104 108 104 98 91 90 95 98 92 83
237 235 231 238 234 170 215 199 249 262 274 264 262 271 258 276 259 268 281 309 346 1 15 35 44 48 60 76 98 98 108 113 121 118 109 105 113 115 105 101 100 102 102 97 95 95 90 82 78
242 240 232 231 237 201 224 210 242 271 269 258 252 257 259 293 278 267 268 279 296 320 352 14 36 38 47 55 56 112 120 127 127 135 141 126 115 109 99 88 87 90 92 88 77 64 62 64 69
243 242 237 230 231 231 223 224 226 231 253 263 262 263 261 271 274 272 262 261 272 276 305 350 18 31 30 38 42 43 108 131 140 143 144 153 158 155 152 147 134 116 107 85 65 49 36 19 15
242 243 240 230 228 231 235 229 229 237 238 231 244 253 257 255 262 262 265 255 255 263 269 279 310 3 17 21 29 30 29 237 176 131 135 148 166 179 174 172 175 178 171 166 288 311 316 331 325
240 239 241 234 231 230 237 233 237 240 243 233 233 248 257 252 250 250 257 264 250 254 255 260 271 291 339 355 10 20 21 343 259 232 157 108 120 143 148 212 176 222 236 278 302 316 324 330 331
244 243 239 236 232 228 237 232 238 244 247 243 245 252 257 256 244 255 260 258 263 251 247 241 251 264 278 290 334 353 12 14 343 297 269 219 95 337 13 15 31 335 335 332 340 341 330 331 332
242 246 244 239 234 234 236 238 235 239 246 246 241 260 262 260 258 257 261 251 251 249 246 245 251 251 256 265 266 293 328 349 9 331 286 276 269 259 263 293 308 320 334 351 356 3 1 4 6
245 244 248 243 244 236 237 240 236 235 242 246 247 251 259 260 259 256 257 256 242 248 242 250 261 261 249 248 261 256 270 297 323 334 337 326 303 302 311 291 284 303 341 354 24 17 18 19 19
244 249 250 248 247 243 239 241 235 237 234 241 244 246 253 256 260 260 255 258 250 240 249 247 255 261 256 247 247 253 253 264 268 293 311 322 319 326 331 328 5 109 323 2 356 1 7 1 1
249 247 245 246 241 242 242 240 238 237 243 238 239 244 244 248 254 260 263 257 253 246 244 249 248 256 260 255 252 250 250 248 255 260 270 276 268 276 277 260 255 235 253 287 305 308 312 309 315
247 245 242 239 238 237 237 244 245 243 245 244 240 238 240 246 247 254 257 260 256 250 246 250 251 250 255 256 256 256 252 248 244 251 256 265 264 260 258 262 258 262 265 268 277 291 297 298 303
246 245 240 239 237 238 236 239 238 240 246 243 243 243 236 238 245 247 250 253 257 257 252 246 254 251 252 253 252 255 253 252 254 252 252 256 257 260 263 262 266 268 272 280 282 287 290 295 299
239 241 241 239 237 235 239 239 241 239 242 242 240 237 238 236 239 245 248 253 256 256 253 253 250 256 251 251 251 253 257 256 254 251 250 249 255 260 263 263 265 265 268 269 276 281 284 289 294
238 235 238 236 239 235 234 242 238 238 239 245 247 242 237 235 239 239 243 246 252 259 263 256 253 250 255 251 251 253 255 255 253 248 248 253 254 255 259 261 261 260 260 262 265 270 275 279 283
237 231 234 235 238 236 234 236 236 236 236 239 244 248 239 236 240 243 238 241 244 253 258 261 260 253 250 254 255 254 254 256 249 249 250 252 256 260 258 257 259 260 260 260 261 265 268 270 275
239 235 233 230 237 238 234 234 233 225 235 237 241 245 247 247 243 243 236 227 237 245 253 257 259 259 253 249 253 257 256 253 254 253 252 254 254 258 262 260 257 260 262 263 261 261 265 270 274
231 240 240 231 217 233 234 239 238 227 229 235 231 235 232 234 229 231 235 235 232 238 245 250 254 259 259 253 251 256 258 256 254 252 254 254 254 258 260 262 260 258 260 262 265 266 265 267 271
215 223 235 231 232 231 233 234 241 232 227 235 236 237 226 223 232 238 229 232 225 232 241 244 252 256 257 257 250 248 252 253 254 254 254 256 257 256 258 260 261 262 263 266 268 271 271 268 268
234 233 230 234 232 227 229 235 239 246 232 233 240 241 236 218 223 236 235 219 223 224 228 239 248 253 256 258 261 253 249 251 251 250 251 256 257 257 256 256 258 260 264 268 270 272 273 273 269
280 225 232 227 236 233 234 224 231 236 244 243 247 241 235 226 227 229 236 233 228 221 223 229 241 248 255 261 262 262 257 250 250 252 251 250 253 258 260 259 258 259 261 265 270 272 273 274 271
243 245 253 249 241 236 232 225 211 201 210 212 214 218 216 222 231 232 231 234 234 245 243 232 229 240 249 252 254 256 258 258 253 251 251 254 256 256 260 260 257 256 259 261 265 269 271 272 271
244 249 247 256 255 263 258 235 209 196 203 203 206 218 217 216 219 226 230 227 231 233 237 248 252 246 251 251 250 251 255 254 255 258 257 254 251 254 255 257 257 253 255 259 262 266 269 270 271
Height
5900 5901 5902 5904 5908 5904 5903 5904 5905 5905 5908 5905 5907 5904 5903 5901 5900 5900 5897 5895 5893 5891 5890 5889 5889 5889 5889 5888 5887 5886 5886 5885 5884 5883 5881 5880 5879 5879 5880 5880 5881 5881 5882 5883 5884 5885 5885 5886 5886
5898 5900 5901 5903 5906 5905 5905 5902 5895 5907 5906 5903 5908 5905 5904 5904 5902 5899 5898 5897 5895 5893 5892 5891 5891 5890 5890 5890 5889 5888 5888 5887 5887 5886 5884 5883 5882 5882 5882 5883 5884 5884 5885 5885 5886 5887 5888 5888 5889
5896 5897 5900 5902 5904 5906 5904 5901 5903 5905 5905 5906 5906 5906 5905 5905 5904 5900 5900 5898 5897 5896 5895 5893 5893 5892 5892 5892 5891 5890 5889 5889 5888 5888 5888 5887 5886 5886 5885 5886 5886 5886 5888 5888 5889 5890 5890 5891 5891
5893 5896 5899 5900 5904 5906 5902 5902 5903 5907 5905 5904 5907 5906 5906 5905 5905 5902 5901 5899 5898 5898 5897 5895 5894 5894 5893 5894 5894 5892 5891 5891 5891 5891 5891 5890 5890 5889 5890 5890 5890 5889 5889 5891 5891 5893 5894 5894 5894
5891 5893 5895 5899 5903 5905 5906 5895 5907 5907 5905 5903 5905 5906 5905 5905 5906 5905 5903 5902 5901 5900 5898 5897 5897 5896 5895 5895 5895 5895 5894 5893 5893 5893 5893 5893 5892 5892 5892 5893 5893 5893 5894 5894 5893 5894 5895 5895 5896
5887 5889 5893 5897 5901 5903 5904 5907 5910 5908 5904 5904 5904 5906 5905 5905 5907 5907 5905 5904 5903 5902 5900 5899 5898 5898 5897 5897 5896 5897 5897 5896 5896 5895 5895 5895 5895 5895 5895 5895 5896 5896 5897 5897 5897 5897 5897 5898 5898
5882 5884 5890 5893 5900 5903 5902 5904 5912 5911 5905 5903 5903 5905 5905 5906 5906 5908 5907 5906 5905 5904 5903 5901 5900 5899 5898 5898 5898 5898 5898 5898 5898 5898 5898 5897 5898 5898 5897 5898 5898 5899 5900 5900 5900 5900 5900 5900 5900
5878 5880 5885 5891 5896 5902 5900 5903 5907 5910 5908 5899 5899 5902 5904 5905 5906 5907 5908 5906 5907 5906 5905 5903 5902 5901 5901 5900 5899 5899 5899 5900 5900 5900 5900 5900 5900 5900 5900 5900 5900 5901 5902 5902 5903 5903 5903 5903 5904
5869 5874 5883 5888 5892 5898 5889 5887 5898 5903 5906 5897 5896 5898 5902 5903 5905 5906 5908 5906 5907 5907 5906 5905 5904 5903 5902 5901 5900 5900 5900 5900 5901 5901 5902 5902 5902 5902 5902 5902 5903 5903 5904 5904 5904 5905 5905 5905 5905
5862 5866 5878 5882 5885 5890 5883 5884 5890 5896 5900 5896 5894 5897 5900 5901 5902 5904 5906 5906 5906 5907 5907 5906 5905 5904 5903 5902 5902 5901 5901 5901 5902 5902 5902 5903 5903 5903 5903 5904 5904 5905 5905 5905 5905 5906 5906 5906 5906
5856 5859 5870 5876 5878 5880 5881 5882 5884 5885 5892 5891 5892 5895 5896 5898 5900 5902 5903 5905 5905 5906 5906 5906 5906 5905 5904 5903 5903 5902 5902 5902 5902 5902 5902 5903 5903 5903 5904 5904 5904 5905 5905 5906 5906 5905 5905 5905 5904
5846 5851 5857 5868 5869 5871 5873 5878 5878 5879 5884 5886 5888 5888 5890 5893 5896 5899 5901 5903 5903 5904 5905 5905 5905 5905 5904 5904 5903 5902 5902 5902 5902 5902 5902 5902 5903 5903 5904 5904 5904 5905 5905 5905 5905 5905 5905 5905 5904
5838 5843 5845 5856 5859 5864 5863 5870 5871 5874 5878 5880 5876 5882 5886 5890 5893 5895 5898 5900 5902 5902 5903 5904 5904 5905 5903 5903 5903 5902 5902 5902 5901 5901 5902 5902 5903 5903 5903 5903 5904 5904 5904 5904 5904 5904 5904 5904 5904
5833 5832 5835 5842 5849 5855 5853 5860 5863 5868 5873 5878 5869 5873 5882 5885 5889 5890 5894 5898 5899 5900 5900 5901 5902 5903 5903 5903 5902 5902 5902 5901 5901 5901 5901 5901 5902 5902 5902 5902 5902 5902 5903 5903 5903 5903 5903 5903 5902
5819 5822 5826 5831 5842 5848 5846 5848 5854 5862 5863 5871 5869 5865 5876 5879 5880 5886 5889 5894 5896 5896 5898 5898 5899 5900 5901 5901 5902 5901 5901 5900 5900 5900 5900 5900 5900 5901 5901 5901 5901 5901 5901 5901 5901 5901 5901 5900 5900
5803 5808 5814 5829 5831 5838 5836 5835 5851 5854 5855 5861 5865 5862 5865 5870 5873 5878 5881 5885 5892 5891 5894 5895 5895 5896 5898 5899 5899 5900 5900 5900 5899 5899 5899 5899 5898 5898 5899 5899 5899 5899 5900 5899 5900 5899 5899 5899 5898
5791 5795 5803 5816 5819 5823 5821 5823 5839 5843 5846 5849 5855 5858 5857 5861 5864 5867 5875 5876 5882 5887 5887 5890 5891 5892 5894 5896 5897 5898 5898 5898 5898 5898 5898 5898 5898 5897 5897 5897 5898 5898 5898 5898 5898 5898 5898 5897 5897
5779 5779 5787 5795 5809 5806 5809 5810 5819 5830 5834 5839 5844 5848 5851 5853 5854 5859 5862 5867 5871 5877 5882 5882 5885 5887 5889 5891 5893 5894 5895 5896 5896 5896 5897 5897 5897 5897 5897 5897 5897 5897 5897 5897 5896 5897 5896 5895 5895
5756 5757 5765 5779 5785 5786 5791 5795 5806 5813 5819 5823 5828 5836 5842 5843 5849 5851 5855 5854 5860 5865 5873 5876 5878 5881 5882 5885 5887 5888 5890 5892 5893 5893 5894 5894 5894 5894 5895 5894 5895 5895 5895 5895 5895 5894 5894 5893 5892
5735 5737 5748 5759 5767 5769 5773 5772 5785 5792 5800 5810 5820 5823 5831 5835 5838 5841 5844 5845 5846 5852 5862 5870 5871 5873 5875 5877 5879 5880 5882 5885 5887 5889 5889 5889 5889 5889 5890 5891 5891 5891 5891 5891 5891 5891 5890 5889 5888
5712 5716 5729 5736 5745 5750 5755 5758 5769 5783 5786 5792 5801 5811 5817 5824 5827 5831 5832 5833 5835 5838 5848 5857 5864 5864 5867 5869 5870 5871 5874 5878 5881 5882 5882 5883 5884 5885 5885 5885 5886 5886 5886 5886 5886 5885 5886 5885 5885
5686 5702 5704 5715 5719 5729 5742 5734 5752 5768 5775 5782 5788 5801 5807 5810 5814 5818 5823 5824 5824 5824 5828 5842 5850 5856 5856 5859 5860 5862 5865 5868 5873 5873 5874 5875 5877 5879 5879 5880 5879 5880 5880 5881 5880 5880 5880 5879 5878
5662 5678 5686 5695 5700 5711 5716 5723 5737 5752 5760 5772 5775 5781 5796 5803 5804 5807 5812 5816 5817 5816 5817 5823 5831 5841 5846 5848 5851 5853 5856 5859 5863 5864 5866 5867 5868 5869 5871 5873 5872 5872 5873 5873 5874 5873 5872 5872 5872
5660 5665 5670 5676 5686 5687 5703 5711 5719 5739 5749 5761 5766 5771 5784 5794 5794 5797 5801 5804 5807 5806 5807 5810 5814 5822 5830 5838 5839 5842 5847 5850 5852 5855 5857 5858 5859 5860 5861 5863 5865 5864 5865 5865 5865 5864 5864 5863 5863
5656 5660 5662 5667 5671 5673 5692 5694 5699 5726 5738 5744 5751 5757 5765 5771 5776 5780 5786 5792 5797 5796 5796 5797 5801 5805 5811 5823 5829 5832 5835 5838 5841 5843 5845 5847 5849 5851 5853 5853 5854 5856 5856 5856 5855 5855 5855 5855 5855
5650 5655 5655 5658 5664 5670 5680 5682 5689 5716 5726 5731 5737 5744 5748 5754 5759 5766 5773 5778 5788 5788 5786 5787 5786 5789 5794 5800 5816 5821 5824 5826 5828 5829 5832 5835 5838 5841 5842 5843 5844 5845 5846 5846 5846 5846 5846 5846 5846
5651 5648 5653 5650 5655 5662 5669 5678 5684 5699 5717 5725 5730 5738 5743 5746 5747 5750 5757 5760 5765 5770 5775 5776 5775 5777 5777 5785 5794 5803 5809 5813 5816 5818 5820 5822 5825 5828 5831 5832 5834 5835 5835 5835 5836 5836 5836 5835 5836
5641 5640 5642 5648 5651 5656 5661 5671 5681 5698 5712 5722 5723 5728 5733 5737 5736 5737 5738 5741 5745 5752 5759 5764 5765 5766 5768 5771 5776 5781 5790 5798 5800 5802 5807 5810 5811 5814 5817 5820 5822 5822 5823 5823 5823 5825 5826 5825 5826
5640 5637 5638 5638 5640 5645 5653 5665 5680 5695 5694 5695 5693 5692 5698 5708 5710 5719 5724 5729 5732 5735 5743 5748 5752 5754 5756 5762 5766 5769 5773 5776 5783 5786 5791 5796 5798 5799 5800 5805 5809 5810 5810 5811 5811 5812 5812 5813 5814
5637 5636 5638 5639 5642 5643 5646 5655 5678 5675 5672 5671 5677 5682 5687 5691 5695 5701 5705 5711 5718 5721 5723 5726 5734 5740 5746 5749 5752 5756 5761 5766 5769 5771 5775 5780 5784 5785 5787 5788 5791 5796 5797 5798 5799 5799 5800 5800 5801